Preview of NWS' New Version of Forecast
This preview is not operational and should not be used for support decisions.
Latest weather observations around

Murrieta (SDMEA)

Using English Units (Switch to International System of Units)
Date/ Time (PST) Wind (mph) Vis. (mi) Weather Sky Cond. Temp (°F) Rel. Humidity Wind Chill (°F) Heat Index (°F) Pressure Precip. (in)
Air Dwpt 6 hour Altimeter (inHg) Sea level (inHg) 1 hr 3 hr 6 hr
Max Min
Dec 13 04:49 Calm   Clear   41 40     98%     30.25        
Dec 13 03:49 Calm   Clear   43 42     97%     30.24        
Dec 13 02:49 Calm   Clear   44 43     97%     30.23        
Dec 13 01:49 Calm   Clear   45 44     97%     30.23        
Dec 13 00:49 NNW 4   Clear   48 47     97% 47   30.22        
Dec 12 23:49 Calm   Clear   47 46     97%     30.23        
Dec 12 22:49 Calm   Clear   47 46     96%     30.22        
Dec 12 21:49 Calm   Clear   48 47     96%     30.23        
Dec 12 20:49 Calm   Clear   49 48     95%     30.23        
Dec 12 19:49 Calm   Clear   50 47     91%     30.2        
Dec 12 18:49 Calm   Clear   53 51     93%     30.19        
Dec 12 17:49 Calm   Clear   55 52     88%     30.16        
Dec 12 16:49 WSW 3   Clear   59 52     79%     30.14        
Dec 12 15:49 WSW 5   Clear   61 53     75%     30.13        
Dec 12 14:49 Calm   Clear   65 52     63%     30.12        
Dec 12 13:49 Calm   Clear   65 51     60%     30.12        
Dec 12 12:49 Calm   Clear   65 52     62%     30.11        
Dec 12 11:49 SW 4   Clear   64 52     66%     30.12        
Dec 12 10:49 SSW 2   Clear   59 49     70%     30.14        
Dec 12 09:49 SE 4   Clear   53 47     81%     30.15        
Dec 12 08:49 SSW 3   Clear   48 47     95% 47   30.14        
Dec 12 07:49 Calm   Clear   42 41     97%     30.14        
Dec 12 06:49 WSW 2   Clear   41 40     97%     30.14        
Dec 12 05:49 Calm   Clear   41 40     97%     30.13        
Dec 12 04:49 Calm   Clear   42 41     97%     30.11        
Dec 12 03:49 Calm   Clear   42 41     97%     30.11        
Dec 12 02:49 SW 1   Clear   43 42     96%     30.11        
Dec 12 01:49 WSW 1   Clear   44 43     96%     30.12        
Dec 12 00:49 Calm   Clear   46 45     95%     30.11        
Dec 11 23:49 SW 4   Clear   46 45     95% 44   30.11        
Dec 11 22:49 Calm   Clear   48 46     94%     30.12        
Dec 11 21:49 Calm   Clear   49 46     90%     30.11        
Dec 11 20:49 WSW 2   Clear   52 48     85%     30.1        
Dec 11 19:49 WSW 2   Clear   54 49     82%     30.08        
Dec 11 18:49 Calm   Clear   56 49     77%     30.06        
Dec 11 17:49 W 5   Clear   58 53     83%     30.04        
Dec 11 16:49 W 2   Clear   63 42     47%     30.02        
Dec 11 15:49 NNW 4   Clear   65 43     45%     29.99        
Dec 11 14:49 S 1   Clear   70 42     36%     29.99        
Dec 11 13:49 Calm   Clear   70 42     36%     30        
Dec 11 12:49 Calm   Clear   69 42     37%     30.02        
Dec 11 11:49 Calm   Clear   65 44     46%     30.04        
Dec 11 10:49 NE 5   Clear   60 50     69%     30.07        
Dec 11 09:49 Calm   Clear   55 48     78%     30.08        
Dec 11 08:49 Calm   Clear   51 48     88%     30.07        
Dec 11 07:49 SW 2   Clear   47 45     94%     30.06        
Dec 11 06:49 Calm   Clear   46 44     94%     30.06        
Dec 11 05:49 Calm   Clear   47 45     92%     30.05        
Dec 11 04:49 Calm   Clear   47 45     92%     30.03        
Dec 11 03:49 Calm   Clear   49 46     91%     30.03        
Dec 11 02:49 Calm   Clear   49 47     92%     30.05        
Dec 10 18:49 Calm   Clear   54 48     80%     30.06        
Dec 10 17:49 WSW 4   Clear   57 49     74%     30.06        
Dec 10 16:49 Calm   Clear   58 48     69%     30.05        
Dec 10 14:49 Calm   Clear   64 50     61%     30.05        
Dec 10 13:49 Calm   Clear   63 51     64%     30.05        
Dec 10 12:49 SW 5   Clear   61 50     68%     30.07        
Dec 10 11:49 Calm   Clear   58 50     74%     30.1        
Dec 10 10:49 SSE 1   Clear   56 50     79%     30.14        
Dec 10 09:49 Calm   Clear   56 51     82%     30.14        
Dec 10 08:49 Calm   Clear   51 48     90%     30.14        
Dec 10 07:49 Calm   Clear   48 45     91%     30.14        
Dec 10 06:49 Calm   Clear   48 45     90%     30.14        
Dec 10 05:49 Calm   Clear   48 45     91%     30.14        
Dec 10 04:49 Calm   Clear   47 44     90%     30.13        
Dec 10 03:49 Calm   Clear   48 45     89%     30.14        
Dec 10 02:49 Calm   Clear   48 44     87%     30.16        
Dec 10 01:49 Calm   Clear   49 44     83%     30.16        
Dec 10 00:49 Calm   Clear   50 45     83%     30.18        
Dec 09 23:49 Calm   Clear   50 45     83%     30.19        
Dec 09 22:49 Calm   Clear   52 46     79%     30.22        
Dec 09 21:49 Calm   Clear   53 46     76%     30.22        
Dec 09 20:49 Calm   Clear   56 45     66%     30.22        
Dec 09 19:49 Calm   Clear   60 46     59%     30.22        
Dec 09 18:49 NW 2   Clear   61 45     56%     30.21        
Dec 09 17:49 Calm   Clear   64 46     51%     30.21        
Dec 09 16:49 NNW 3   Clear   65 45     49%     30.21        
Dec 09 15:49 Calm   Clear   68 45     43%     30.2        
Dec 09 14:49 NW 3   Clear   69 46     44%     30.2        
Dec 09 13:49 Calm   Clear   69 46     44%     30.2        
Dec 09 12:49 Calm   Clear   71 48     44%   70 30.24        
Dec 09 11:49 Calm   Clear   68 46     46%     30.27        
Dec 09 10:49 Calm   Clear   65 47     53%     30.31        
Dec 09 09:49 Calm   Clear   58 50     76%     30.34        
Dec 09 08:49 Calm   Clear   52 50     92%     30.33        
Dec 09 07:49 Calm   Clear   44 43     97%     30.32        
Dec 09 06:49 Calm   Clear   43 42     97%     30.31        
Dec 09 05:49 Calm   Clear   43 42     97%     30.29        
Dec 09 04:49 Calm   Clear   44 43     97%     30.28        
Dec 09 03:49 Calm   Clear   45 44     96%     30.29        
Dec 09 02:49 Calm   Clear   45 44     96%     30.3        
Dec 09 01:49 Calm   Clear   46 45     95%     30.31        
Dec 09 00:49 Calm   Clear   49 47     93%     30.31        
Dec 08 23:49 Calm   Clear   48 46     93%     30.31        
Dec 08 22:49 Calm   Clear   48 45     91%     30.33        
Dec 08 21:49 Calm   Clear   50 47     90%     30.32        
Dec 08 20:49 Calm   Clear   51 48     89%     30.31        
Dec 08 19:49 Calm   Clear   52 48     86%     30.3        
Dec 08 18:49 Calm   Clear   55 50     82%     30.27        
Dec 08 17:49 WSW 3   Clear   58 52     79%     30.26        
Dec 08 16:49 SW 1   Clear   60 51     71%     30.24        
Dec 08 15:49 Calm   Clear   64 47     54%     30.23        
Dec 08 14:49 Calm   Clear   70 48     45%     30.23        
Dec 08 13:49 Calm   Clear   70 46     42%     30.24        
Dec 08 12:49 SE 3   Clear   69 47     46%     30.25        
Dec 08 11:49 Calm   Clear   67 48     50%     30.27        
Dec 08 10:49 E 3   Clear   65 48     55%     30.3        
Dec 08 09:49 Calm   Clear   59 51     75%     30.31        
Dec 08 08:49 Calm   Clear   52 50     93%     30.31        
Dec 08 07:49 Calm   Clear   44 43     97%     30.3        
Dec 08 06:49 Calm   Clear   41 40     97%     30.29        
Dec 08 05:49 Calm   Clear   42 41     97%     30.27        
Dec 08 04:49 Calm   Clear   43 42     97%     30.25        
Dec 08 03:49 Calm   Clear   43 42     96%     30.25        
Dec 08 02:49 Calm   Clear   44 43     95%     30.25        
Dec 08 01:49 Calm   Clear   46 45     95%     30.24        
Dec 08 00:49 Calm   Clear   48 45     90%     30.23        
Dec 07 23:49 Calm   Clear   48 45     90%     30.24        
Dec 07 22:49 Calm   Clear   49 45     87%     30.23        
Dec 07 21:49 Calm   Clear   51 47     85%     30.22        
Dec 07 20:49 Calm   Clear   51 46     82%     30.2        
Dec 07 19:49 Calm   Clear   54 47     76%     30.19        
Dec 07 18:49 NNW 2   Clear   57 47     68%     30.17        
Dec 07 17:49 WNW 5   Clear   59 48     66%     30.15        
Dec 07 16:49 N 1   Clear   60 48     64%     30.12        
Dec 07 15:49 Calm   Clear   62 49     62%     30.1        
Dec 07 14:49 Calm   Clear   65 49     57%     30.08        
Dec 07 13:49 Calm   Clear   66 51     59%     30.08        
Dec 07 12:49 Calm   Clear   66 52     61%     30.08        
Dec 07 11:49 Calm   Clear   63 51     64%     30.09        
Dec 07 10:49 Calm   Clear   61 51     70%     30.11        
Dec 07 09:49 Calm   Clear   58 50     75%     30.12        
Dec 07 08:49 E 4   Clear   55 51     85%     30.11        
Dec 07 07:49 Calm   Clear   48 47     97%     30.06        
Dec 07 06:49 Calm   Clear   48 47     96%     30.06        
Dec 07 05:49 Calm   Clear   50 49     97%     30.03        
Dec 07 04:49 Calm   Clear   50 49     97%     30.01        
Dec 07 03:49 Calm   Clear   50 49     98%     29.99        
Dec 07 02:49 Calm   Clear   49 48     98%     29.99        
Dec 07 01:49 Calm   Clear   48 47     98%     29.98        
Dec 07 00:49 Calm   Clear   49 48     98%     29.98        
Dec 06 23:49 Calm   Clear   50 49     98%     29.98        
Dec 06 22:49 Calm   Clear   50 49     98%     29.98        
Dec 06 21:49 Calm   Clear   50 49     98%     29.97        
Dec 06 20:49 Calm   Clear   50 49     98%     29.94        
Dec 06 19:49 Calm   Clear   49 48     98%     29.94        
Dec 06 18:49 Calm   Clear   50 49     98%     29.94        
Dec 06 17:49 Calm   Clear   49 48     98%     29.94        
Dec 06 16:49 Calm   Clear   50 49     98%     29.95        
Dec 06 15:49 Calm   Clear   51 50     98%     29.92        
Dec 06 14:49 N 1   Clear   51 50     98%              
Dec 06 13:49 Calm   Clear   54 53     97%     29.89        
Dec 06 12:49 Calm   Clear   55 54     97%     29.9        
Dec 06 11:49 Calm   Clear   54 53     97%     29.92        
Dec 06 10:49 Calm   Clear   54 53     97%     29.94        
Dec 06 09:49 Calm   Clear   53 52     97%     29.96        
Dec 06 08:49 Calm   Clear   52 51     97%     29.95        
Dec 06 07:49 Calm   Clear   51 50     97%     29.93        
Dec 06 06:49 Calm   Clear   50 49     97%     29.92        
Dec 06 05:49 Calm   Clear   50 49     97%     29.91        
Dec 06 04:49 Calm   Clear   50 49     97%     29.88        
Dec 06 03:49 Calm   Clear   50 49     97%     29.9        
Dec 06 02:49 Calm   Clear   50 49     97%     29.91        
Dec 06 01:49 Calm   Clear   50 49     97%     29.91        
Dec 06 00:49 Calm   Clear   50 49     97%     29.93        
Dec 05 23:49 Calm   Clear   51 50     97%     29.93        
Dec 05 22:49 Calm   Clear   50 49     97%     29.93        
Dec 05 21:49 Calm   Clear   50 49     97%     29.93        
Dec 05 20:49 Calm   Clear   50 49     97%     29.93        
Dec 05 19:49 Calm   Clear   50 49     97%     29.92        
Dec 05 18:49 Calm   Clear   49 48     97%     29.91        
Dec 05 17:49 Calm   Clear   49 48     97%     29.91        
Dec 05 16:49 Calm   Clear   49 48     96%     29.92        
Dec 05 15:49 Calm   Clear   48 47     96%     29.91        
Dec 05 14:49 Calm   Clear   48 47     95%     29.89        
Dec 05 13:49 S 1   Clear   49 48     95%     29.92        
Dec 05 12:49 SW 3   Clear   47 46     95% 46   29.92        
Dec 05 11:49 WSW 1   Clear   47 46     95%     29.95        
Dec 05 10:49 Calm   Clear   46 44     91%     29.99        
Dec 05 09:49 NW 5   Clear   45 41     86% 42   30.02        
Dec 05 08:49 Calm   Clear   44 36     74%     30        
Dec 05 07:49 Calm   Clear   43 35     72%     29.99        
Dec 05 06:49 Calm   Clear   39 32     77%     29.96        
Dec 05 05:49 Calm   Clear   38 31     75%     29.96        
Dec 05 04:49 Calm   Clear   38 32     78%     29.95        
Dec 05 03:49 Calm   Clear   38 29     71%     29.96        
Dec 05 02:49 Calm   Clear   40 30     66%     29.99        
Dec 05 01:49 Calm   Clear   41 30     64%     30        
Dec 05 00:49 Calm   Clear   44 30     58%     30.01        
Dec 04 23:49 Calm   Clear   43 29     58%     30        
Dec 04 22:49 Calm   Clear   44 30     58%     30.02        
Dec 04 21:49 Calm   Clear   46 31     55%     30.02        
Dec 04 20:49 Calm   Clear   46 30     53%     30.02        
Dec 04 19:49 Calm   Clear   48 30     50%     30.01        
Dec 04 18:49 Calm   Clear   50 31     47%     29.99        
Dec 04 17:49 Calm   Clear   54 31     42%     29.99        
Dec 04 16:49 Calm   Clear   62 27     26%     29.98        
Dec 04 15:49 Calm   Clear   63        %     29.97        
Dec 04 14:49 WNW 3   Clear   69 31     24%     29.97        
Dec 04 13:49 NNW 2   Clear   69 31     24%     29.99        
Dec 04 12:49 Calm   Clear   68        %     30.02        
Dec 04 11:49 NW 3   Clear   66        %     30.06        
Dec 04 10:49 ESE 1   Clear   65 33     30%     30.1        
Dec 04 09:49 Calm   Clear   59 36     42%     30.12        
Dec 04 08:49 NNW 3   Clear   55        %     30.13        
Dec 04 07:49 Calm   Clear   48 34     59%     30.13        
Dec 04 06:49 Calm   Clear   41 34     77%     30.11        
Dec 04 05:49 Calm   Clear   40 35     81%     30.1        
Dec 04 04:49 Calm   Clear   40 35     83%     30.1        
Dec 04 03:49 Calm   Clear   41 36     81%     30.11        
Dec 04 02:49 Calm   Clear   41 35     78%     30.12        
Dec 04 01:49 Calm   Clear   43 34     71%     30.12        
Dec 04 00:49 Calm   Clear   42 34     73%     30.12        
Dec 03 23:49 Calm   Clear   43 35     72%     30.12        
Dec 03 22:49 Calm   Clear   44 35     71%     30.14        
Dec 03 21:49 Calm   Clear   45 34     64%     30.15        
Dec 03 20:49 W 2   Clear   47 33     59%     30.14        
Dec 03 19:49 Calm   Clear   48 34     57%     30.14        
Dec 03 18:49 Calm   Clear   53 35     50%     30.13        
Dec 03 17:49 Calm   Clear   53 36     52%     30.12        
Dec 03 16:49 NW 2   Clear   57 34     42%     30.1        
Dec 03 15:49 Calm   Clear   62 36     38%     30.09        
Dec 03 14:49 Calm   Clear   66 34     30%     30.09        
Dec 03 13:49 Calm   Clear   67 35     31%     30.1        
Dec 03 12:49 Calm   Clear   66 34     31%     30.11        
Dec 03 11:49 Calm   Clear   64 40     41%     30.14        
Dec 03 10:49 Calm   Clear   61 41     47%     30.17        
Dec 03 09:49 ENE 4   Clear   58 42     55%     30.19        
Dec 03 08:49 SW 1   Clear   47 45     92%     30.19        
Dec 03 07:49 Calm   Clear   44 43     95%     30.19        
Dec 03 06:49 Calm   Clear   41 40     96%     30.18        
Dec 03 05:49 Calm   Clear   41 40     96%     30.17        
Dec 03 04:49 Calm   Clear   40 39     96%     30.16        
Dec 03 03:49 Calm   Clear   40 39     96%     30.16        
Dec 03 02:49 Calm   Clear   39 38     95%     30.16        
Dec 03 01:49 WSW 2   Clear   40 39     95%     30.14        
Dec 03 00:49 Calm   Clear   41 39     93%     30.14        
Dec 02 23:49 Calm   Clear   42 40     92%     30.14        
Dec 02 22:49 Calm   Clear   43 40     89%     30.13        
Dec 02 21:49 WSW 1   Clear   45 41     85%     30.13        
Dec 02 20:49 Calm   Clear   46 41     82%     30.12        
Dec 02 19:49 Calm   Clear   48 41     76%     30.11        
Dec 02 18:49 WSW 4   Clear   49 41     74% 48   30.09        
Dec 02 17:49 SW 4   Clear   51 41     69%     30.06        
Dec 02 16:49 Calm   Clear   54 41     61%     30.05        
Dec 02 15:49 Calm   Clear   58 39     49%     30.03        
Dec 02 14:49 Calm   Clear   61 39     44%     30.02        
Dec 02 13:49 Calm   Clear   61 42     50%     30.01        
Dec 02 12:49 S 5   Clear   61 45     55%     30.02        
Dec 02 11:49 WNW 3   Clear   59 46     61%     30.04        
Dec 02 10:49 SSE 5   Clear   59 45     60%     30.06        
Dec 02 09:49 Calm   Clear   57 49     75%     30.07        
Dec 02 08:49 Calm   Clear   54 50     85%     30.06        
Dec 02 07:49 Calm   Clear   46 45     96%     30.03        
Dec 02 06:49 WSW 1   Clear   43 42     97%     30        
Dec 02 05:49 Calm   Clear   43 42     96%     29.97        
Dec 02 04:49 Calm   Clear   44 43     96%     29.96        
Dec 02 03:49 Calm   Clear   46 44     93%     29.94        
Dec 02 02:49 Calm   Clear   49 46     89%     29.94        
Dec 02 01:49 Calm   Clear   52 48     86%     29.94        
Dec 02 00:49 Calm   Clear   53 49     85%     29.94        
Dec 01 23:49 Calm   Clear   52 48     86%     29.95        
Dec 01 22:49 Calm   Clear   49 47     94%     29.95        
Dec 01 21:49 N 3   Clear   49 47     92% 49   29.94        
Dec 01 20:49 Calm   Clear   50 47     88%     29.95        
Dec 01 19:49 Calm   Clear   53 47     81%     29.95        
Dec 01 18:49 Calm   Clear   53 46     78%     29.93        
Dec 01 17:49 WNW 3   Clear   54 46     75%     29.93        
Dec 01 16:49 Calm   Clear   56 46     68%     29.92        
Dec 01 15:49 WNW 3   Clear   58 47     66%     29.93        
Dec 01 14:49 Calm   Clear   62 48     60%     29.93        
Dec 01 13:49 Calm   Clear   63 47     56%     29.92        
Dec 01 12:49 Calm   Clear   63 49     60%     29.95        
Dec 01 11:49 Calm   Clear   61 50     66%     29.98        
Dec 01 10:49 SW 8   Clear   59 50     73%     30        
Dec 01 09:49 SSE 4   Clear   57 53     88%     30.03        
Dec 01 08:49 Calm   Clear   50 49     97%     30.03        
Dec 01 07:49 Calm   Clear   48 47     97%     30.03        
Dec 01 06:49 Calm   Clear   46 45     97%     30.03        
Dec 01 05:49 Calm   Clear   46 45     97%     30.02        
Dec 01 04:49 Calm   Clear   47 46     97%     30        
Dec 01 03:49 Calm   Clear   48 47     96%     30        
Dec 01 02:49 WSW 1   Clear   48 47     96%     30        
Dec 01 01:49 SW 2   Clear   49 48     96%     30        
Dec 01 00:49 WSW 3   Clear   51 50     95%     30.03        
Nov 30 23:49 Calm   Clear   50 48     94%     30.03        
Nov 30 22:49 Calm   Clear   53 50     91%     30.03        
Nov 30 21:49 WSW 1   Clear   51 49     93%     30.03        
Nov 30 20:49 WSW 5   Clear   51 49     92%     30.02        
Nov 30 19:49 Calm   Clear   53 49     86%     30.01        
Nov 30 18:49 W 5   Clear   54 50     85%     30.02        
Nov 30 17:49 Calm   Clear   55 50     82%     29.99        
Nov 30 16:49 Calm   Clear   56 51     82%     29.98        
Nov 30 14:49 Calm   Clear   60 52     75%     29.95        
Nov 30 13:49 Calm   Clear   62 52     70%     29.94        
Nov 30 12:49 Calm   Clear   62 52     69%     29.95        
Nov 30 11:49 Calm   Clear   62 54     74%     29.95        
Nov 30 10:49 W 4   Clear   60 52     75%     29.97        
Nov 30 09:49 WSW 3   Clear   57 53     85%     29.98        
Nov 30 08:49 SW 6   Clear   57 54     89%     29.96        
Nov 30 07:49 Calm   Clear   52 51     98%     29.93        
Nov 30 06:49 WSW 1   Clear   51 50     98%     29.91        
Nov 30 05:49 Calm   Clear   51 50     98%     29.89        
Nov 30 04:49 Calm   Clear   51 50     98%     29.87        
Nov 30 03:49 Calm   Clear   52 51     98%     29.85        
May 15 11:49 Calm   Clear   67 55     66%     30.07        
Notice The following observation data may not be complete
May 15 09:49     Clear            %              
Notice The following observation data may not be complete
May 14 19:49     Clear            %              
May 14 00:49 SW 6   Clear   53 52     96%     30.02        
May 13 17:49 N 3   Clear   66 53     63%     29.96        
Notice The following observation data may not be complete
May 13 10:49     Clear            %              
May 13 02:49 Calm   Clear   55 50     84%     30.02        
May 12 07:49 Calm   Clear   54 51     89%     29.98        
May 11 07:49 Calm   Clear   55 52     90%     29.9        
Notice The following observation data may not be complete
Jun 12 01:49     Clear            %              
Jun 11 22:49 Calm   Clear   56 53     89%     30.01        
Jun 11 21:49 WSW 3   Clear   57 53     88%     30        
Jun 11 10:49 Calm   Clear   58 57     95%     29.96        
Notice The following observation data may not be complete
Jun 11 08:49     Clear            %              
Notice The following observation data may not be complete
Jun 09 17:49     Clear            %              
Notice The following observation data may not be complete
Jun 09 10:49     Clear            %              
Jun 09 01:49 Calm   Clear   58 57     96%     29.98        
Notice The following observation data may not be complete
Jun 07 20:49     Clear            %              
Jun 06 11:49 WSW 8   Clear   69 61     77%     29.98